CZ-6A DEB, 64654

Orbit data source: Space-Track

CZ-6A DEB, 64654 is space debris in LEO originally from a launch on Tue, 06 Aug 2024 UTC launched from the Taiyaun Space Center, China (TSC). Debris objects in space refer to the collection of defunct objects orbiting the Earth. Examples of debris include non-operational satellites, rocket bodies, and fragments generated from explosions, collisions, or faulty payload assembly.

Loading next visibility...
Identifier
64654, 2024-140AEU
Orbit
LEO
Country
Flag of CNCN / PRC
Related business
Manufacturer
SAST
Mission
Spacecraft
Bus & Motor
Unknown
Mass
Unknown
Launch date (UTC)
2024-08-06 (2 years ago)
Launch vehicle
Unknown
Launch site
Taiyaun Space Center, China (TSC)
Object type
Payload
Rocket body
Debris
Shape & HBR
Unknown shape, 1.1 m
Radar Cross Section
Medium (>0.1 m² and <1 m²)

Expand to show TLE details & history
Last TLE update: 2 days ago

TLE from 2 days ago
0 CZ-6A DEB
1 64654U 24140AEU 26170.11070633  .00001537  00000-0  74772-3 0  9999
2 64654  88.3270 221.9008 0078579 184.1572 175.8973 14.16097678 85474
Epoch: 2026-06-19T02:39Z
TLE epoch observation values (Epoch: 2026-06-19T02:39:25.026Z)
Latitude
-0.00006°
Longitude
-85.29786°
Altitude
898.202 km
Speed
7.374 km/s
True Right ascension
14h 47m 36s
True Declination
0° 00' 00"
Sunlit
Object was in full shadow at epoch
Visualization orbit readout
Latitude
Unknown
Longitude
Unknown
Altitude
Unknown
Speed
Unknown
Apparent Right ascension
Unknown
Apparent Declination
Unknown
Sunlit
N/A
Visualization observer readout
Local Sidereal Time
07:21:09
Azimuth
Unknown
Elevation
Unknown
Doppler factor
Unknown
Orbital elements
Apogee altitude
892.226 km
Perigee altitude
778.858 km
Semi-major axis
7,213.679 km
Eccentricity
0.00786
Inclination
88.327°
RAAN
221.9008°
Arg. of periapsis
184.1572°
True anomaly
175.9611°
Mean anomaly
175.8973°
Eccentric anomaly
175.92926°
Mean motion
3.54248 °/min
Orbital period
101.62 mins
BSTAR
0.00074772
Loading maneuver chart data...
Computing Atmospheric mass density...
Loading historical data...
Loading historical data...
Loading historical data...
Loading historical data...
Loading historical data...
Loading historical data...
Loading historical data...

Documentation

Showing up to 5 results
|